Regional Weather Roundup
Issued by NWS

Home | Current Version | Previous Version | Text Only | Print | Product List | Glossary Off
Versions: 1 2 3 4 5 6 7 8 9 10 11 12 13 14 15 16 17 18 19 20 21 22 23 24 25 26 27 28 29 30 31 32 33 34 35 36 37 38 39 40 41 42 43 44 45 46 47 48 49 50

000
ASUS43 KBIS 232010
RWRND

NORTH DAKOTA REGIONAL WEATHER ROUNDUP
NATIONAL WEATHER SERVICE BISMARCK ND
300 PM CDT SUN APR 23 2017

NOTE: "FAIR" INDICATES FEW OR NO CLOUDS BELOW 12,000 FEET WITH NO
SIGNIFICANT WEATHER AND/OR OBSTRUCTIONS TO VISIBILITY.


NDZ001>003-009>011-017-232100-
NORTHWEST NORTH DAKOTA

CITY           SKY/WX    TMP DP  RH WIND       PRES   REMARKS
WILLISTON      CLOUDY    33  27  78 E16G28    29.96F
MINOT          LGT SNOW  32  28  85 E15G26    30.02F FOG
MINOT AFB      MIX PCPN  31  29  90 E20       30.02F FOG     WCI  19
$$

NDZ018>021-031>035-040>046-232100-
SOUTHWEST NORTH DAKOTA

CITY           SKY/WX    TMP DP  RH WIND       PRES   REMARKS
BISMARCK       CLOUDY    40  33  76 E17G28    29.94S
DICKINSON      CLOUDY    35  30  82 E17       29.85F
GARRISON         N/A     31  28  89 E22G35    29.97F WCI  18
HETTINGER ARPT CLOUDY    44  35  70 NE14      29.83F
$$

NDZ004>008-012>016-024-026-027-054-232100-
NORTHEAST NORTH DAKOTA

CITY           SKY/WX    TMP DP  RH WIND       PRES   REMARKS
GRAND FORKS    LGT SNOW  32  30  92 NE13      30.12F VSB 3/4
GRND FRKS AFB  LGT SNOW  30  27  86 E13       30.13F VSB 1
DEVILS LAKE    LGT SNOW  28  25  86 E17G23    30.08F VSB 3/4 WCI  16
$$

NDZ022-023-025-028>030-036>039-047>053-232100-
SOUTHEAST NORTH DAKOTA

CITY           SKY/WX    TMP DP  RH WIND       PRES   REMARKS
FARGO          CLOUDY    43  34  70 NE21      30.02F
JAMESTOWN      CLOUDY    35  30  82 NE22G28   29.99R
$$




USA.gov is the U.S. government's official web portal to all federal, state and local government web resources and services.